Home   Weather   Namur   Past weeks

Flag for Belgium Past Weather in Namur, Belgium — Yesterday and Last 2 Weeks

Now
28 °F

Passing clouds.


Feels Like: 21 °F
Forecast: 18 / 25 °F
Wind: 7 mph from Northeast

Location: Charleroi / Gosselies

Current Time: Jan 16, 2017 at 8:42:53 pm

Latest Report: Jan 16, 2017 at 7:50 pm


Visibility: 4 mi

Pressure: 30.39 "Hg

Humidity: 93%

Dew Point: 27 °F

Location of NamurLocation

Past Weather in Namur — Graph

°F

Namur Temperature Yesterday

Maximum temperature yesterday: 34 °F (at 11:50 am)
Minimum temperature yesterday: 32 °F (at 12:20 am)
Average temperature yesterday: 33 °F

High & Low Weather Summary for the Past Weeks

 TemperatureHumidityPressure
High48 °F (Jan 11, 2:50 pm)100% (Jan 2, 9:20 am)30.72 "Hg (Jan 2, 9:20 am)
Low21 °F (Jan 6, 8:50 am)40% (Jan 15, 4:50 pm)28.94 "Hg (Jan 12, 11:20 pm)
Average34 °F87%30.15 "Hg
* Reported Jan 1 7:20 pm — Jan 16 7:20 pm, Namur, Weather by CustomWeather, © 2017

Note: Actual official high and low records may vary slightly from our data, if they occured in-between our weather recording intervals... More about our weather records

Advertising

Namur Weather History for the Previous 24 Hours

Scroll right to see more
 ConditionsComfort  
Time TempWeatherWind HumidityBarometerVisibility
7:20 pm
Mon, Jan 16
28 °FPassing clouds.7 mph93%30.39 "Hg6 mi
6:50 pm30 °FPassing clouds.7 mph86%30.36 "Hg6 mi
6:20 pm30 °FPassing clouds.7 mph86%30.36 "Hg6 mi
5:50 pm30 °FPassing clouds.6 mph86%30.36 "Hg6 mi
5:20 pm30 °FPassing clouds.5 mph86%30.33 "Hg6 mi
4:50 pm32 °FPartly sunny.6 mph80%30.33 "Hg6 mi
4:20 pm32 °FPartly sunny.8 mph87%30.33 "Hg6 mi
3:50 pm32 °FPartly sunny.8 mph80%30.33 "Hg6 mi
3:20 pm34 °FPartly sunny.9 mph75%30.33 "Hg6 mi
2:50 pm34 °FBroken clouds.9 mph81%30.30 "Hg4 mi
2:20 pm34 °FBroken clouds.9 mph81%30.30 "Hg4 mi
1:50 pm34 °FBroken clouds.7 mph81%30.30 "Hg4 mi
1:20 pm34 °FBroken clouds.9 mph87%30.30 "Hg4 mi
12:50 pm34 °FFog.7 mph87%30.30 "Hg2 mi
12:20 pm34 °FFog.6 mph81%30.30 "Hg1 mi
11:50 am34 °FFog.7 mph93%30.30 "Hg1 mi
11:20 am34 °FFog.5 mph93%30.30 "Hg1 mi
10:50 am32 °FFog.5 mph87%30.30 "Hg1 mi
10:20 am32 °FIce fog.5 mph93%30.30 "Hg1 mi
9:50 am32 °FIce fog.3 mph93%30.27 "Hg2 mi
9:20 am32 °FIce fog.5 mph87%30.27 "Hg1 mi
8:50 am32 °FLight snow. Broken clouds.5 mph100%30.27 "Hg1 mi
8:20 am32 °FLight snow. Ice fog.3 mph100%30.27 "Hg1 mi
7:50 am32 °FLight snow. Ice fog.5 mph100%30.27 "Hg1 mi
7:20 am32 °FLight snow. Ice fog.3 mph100%30.24 "Hg1 mi
6:50 am32 °FLight snow. Ice fog.2 mph100%30.24 "Hg1 mi
6:20 am32 °FLight snow. Ice fog.1 mph100%30.24 "Hg1 mi
5:50 am34 °FLight snow. Fog.2 mph93%30.24 "Hg1 mi
5:20 am34 °FFog.3 mph93%30.24 "Hg1 mi
4:50 am34 °FFog.2 mph93%30.24 "Hg2 mi
4:20 am34 °FFog.3 mph93%30.24 "Hg2 mi
3:50 am34 °FFog.3 mph93%30.24 "Hg2 mi
3:20 am34 °FFog.3 mph93%30.21 "Hg2 mi
2:50 am32 °FIce fog.5 mph100%30.21 "Hg1 mi
2:20 am32 °FFog.3 mph100%30.21 "Hg1 mi
1:50 am34 °FFog.3 mph93%30.21 "Hg1 mi
1:20 am32 °FIce fog.2 mph100%30.21 "Hg1 mi
12:50 am32 °FFog.3 mph100%30.21 "Hg1 mi
12:20 am32 °FFog.3 mph100%30.21 "Hg1 mi
11:50 pm
Sun, Jan 15
32 °FIce fog.3 mph100%30.21 "Hg1 mi
11:20 pm32 °FIce fog.3 mph100%30.21 "Hg1 mi
10:50 pm32 °FIce fog.3 mph100%30.21 "Hg1 mi
10:20 pm32 °FIce fog.3 mph100%30.18 "Hg1 mi
9:50 pm32 °FIce fog.3 mph100%30.18 "Hg1 mi
9:20 pm32 °FIce fog.7 mph100%30.18 "Hg1 mi
8:50 pm34 °FFog.8 mph93%30.18 "Hg1 mi
8:20 pm34 °FFog.5 mph93%30.18 "Hg2 mi
Weather by CustomWeather, © 2017

See weather overviewHow to use our weather pages